Weather History for LTCD - September, 2013

Change the Weather History Date:

Thursday, September 12, 2013

  Actual Average Record
Temperature  
Mean Temperature 64 °F -  
Max Temperature 84 °F 75 °F - ()
Min Temperature 43 °F 46 °F - ()
Degree Days  
Heating Degree Days 2    
Growing Degree Days 14 (Base 50)    
Moisture  
Dew Point 35 °F    
Average Humidity 36    
Maximum Humidity 81    
Minimum Humidity 8    
Precipitation  
Precipitation 0.00 in 0.03 in - ()
Sea Level Pressure  
Sea Level Pressure 30.06 in    
Wind  
Wind Speed 2 mph ()    
Max Wind Speed 9 mph    
Max Gust Speed -    
Visibility 9.8 miles    
Events      
T = Trace of Precipitation, MM = Missing Value Source: Averaged Metar Reports

Daily Weather History Graph

Daily Weather History Graph

Search for Another Location

Airport or City:

Trip Planner

Search our weather history database for the weather conditions in past years. The results will help you decide how hot, cold, wet, or windy it might be!

Date:

Astronomy

Sep. 12, 2013 Rise Set
Actual Time 6:00 AM EEST 6:35 PM EEST
Civil Twilight 5:32 AM EEST 7:02 PM EEST
Nautical Twilight 5:00 AM EEST 7:34 PM EEST
Astronomical Twilight 4:27 AM EEST 8:07 PM EEST
Moon 1:05 PM EEST (9/12) 11:10 PM EEST (9/12)
Length of Visible Light 13h 29m
Length of Day
12h 35m
Waxing Crescent, 46% of the Moon is Illuminated
Sep 12
Waxing Crescent
Sep 12
First Quarter
Sep 19
Full
Sep 27
Last Quarter
Oct 5
New

Hourly Weather History & Observations

Time (EEST) Temp. Dew Point Humidity Pressure Visibility Wind Dir Wind Speed Gust Speed Precip Events Conditions
12:50 AM 57.2 °F 37.4 °F 48% 30.06 in - Variable 1.2 mph - N/A   Clear
1:50 AM 53.6 °F 37.4 °F 54% 30.06 in - Calm Calm - N/A   Clear
2:50 AM 51.8 °F 37.4 °F 58% 30.06 in - Calm Calm - N/A   Clear
3:00 AM 52 °F 37 °F 46%  in 6 mi Calm Calm - -  
3:50 AM 48.2 °F 37.4 °F 66% 30.06 in - Calm Calm - N/A   Clear
4:50 AM 48.2 °F 37.4 °F 66% 30.06 in - Calm Calm - N/A   Clear
5:50 AM 44.6 °F 39.2 °F 81% 30.09 in - Calm Calm - N/A   Clear
6:50 AM 46.4 °F 39.2 °F 76% 30.09 in - Calm Calm - N/A   Clear
7:50 AM 55.4 °F 39.2 °F 54% 30.12 in - SE 3.5 mph - N/A   Clear
8:50 AM 62.6 °F 39.2 °F 42% 30.09 in - Variable 2.3 mph - N/A   Clear
9:00 AM 63 °F 38 °F 27%  in 9 mi South 2.3 mph - -  
9:50 AM 68.0 °F 35.6 °F 30% 30.09 in - Variable 1.2 mph - N/A   Clear
10:50 AM 71.6 °F 37.4 °F 29% 30.09 in - Variable 2.3 mph - N/A   Clear
11:50 AM 75.2 °F 37.4 °F 25% 30.06 in - Variable 2.3 mph - N/A   Clear
1:50 PM 80.6 °F 32.0 °F 17% 30.01 in - Variable 2.3 mph - N/A   Clear
2:50 PM 82.4 °F 32.0 °F 16% 30.01 in - NW 5.8 mph - N/A   Clear
3:00 PM 82 °F 31 °F 8%  in 12 mi NW 5.8 mph - -  
3:50 PM 84.2 °F 28.4 °F 13% 30.01 in - West 4.6 mph - N/A   Clear
4:50 PM 84.2 °F 28.4 °F 13% 29.98 in - West 3.5 mph - N/A   Clear
5:50 PM 80.6 °F 23.0 °F 12% 30.01 in - NW 8.1 mph - N/A   Clear
6:50 PM 75.2 °F 24.8 °F 15% 30.01 in - NNW 6.9 mph - N/A   Clear
7:50 PM 68.0 °F 32.0 °F 26% 30.04 in - WNW 4.6 mph - N/A   Clear
8:50 PM 71.6 °F 35.6 °F 27% 30.06 in - NW 8.1 mph - N/A   Clear
9:00 PM 72 °F 34 °F 14%  in 12 mi NW 8.1 mph - -  
9:50 PM 66.2 °F 37.4 °F 35% 30.06 in - West 6.9 mph - N/A   Clear
10:50 PM 68.0 °F 35.6 °F 30% 30.09 in - WNW 9.2 mph - N/A   Clear
11:50 PM 64.4 °F 37.4 °F 37% 30.09 in - WNW 8.1 mph - N/A   Clear